Location: Bluewater Lake State Park
(35.2919°N, 108.1111°W)
Time: 12:45:05
(UTC-06:00)

Tiangong 2 - Visible Passes

Search period start: 22 July 2018 00:00
Search period end: 01 August 2018 00:00
Orbit: 386 x 394 km, 42.8° (Epoch: 22 July)

Date Brightness Start Highest point End Pass type
(mag) Time Alt. Az. Time Alt. Az. Time Alt. Az.
22 Jul 2.8 20:51:03 10° NW 20:53:51 27° NNE 20:56:38 10° ENE visible
22 Jul 2.0 22:27:45 10° WNW 22:30:06 44° W 22:30:06 44° W visible
23 Jul 1.2 21:30:01 10° WNW 21:33:11 67° NNE 21:34:52 25° ESE visible
24 Jul 2.4 22:09:22 10° W 22:12:00 30° SW 22:12:00 30° SW visible
25 Jul 1.3 21:11:26 10° WNW 21:14:34 59° SSW 21:16:51 17° SE visible
26 Jul 3.4 21:51:32 10° WSW 21:53:25 15° SW 21:54:06 14° SSW visible
27 Jul 2.7 20:53:04 10° W 20:55:50 27° SW 20:58:35 10° SSE visible
